BWA901 EGLL-TAPA

Flight info

Callsign BWA901
Flight time N/A
Altitude 34000
Route GOGSI N621 EVTES N514 ADKIK DCT JOZMA DCT LULOX/M083F340 DCT BEDRA DCT 4730N02000W 43N030W 37N040W/M083F360 30N050W 26N055W/M083F380 20N060W DCT AMTTO DCT ANU
Aircraft L101/H-SDFHIRWX/LB1

Departure

Time N/A
Airport London Heathrow Airport (EGLL)

Arrival

Time 2026-04-18 21:32
Airport V. C. Bird International Airport (TAPA)
Time Latitude Longitude Altitude Speed Heading
2026-04-18 15:29 47.07573 -21.11371 34183 ft 489 kts 242°
2026-04-18 15:29 47.05886 -21.15706 34180 ft 489 kts 242°
2026-04-18 15:29 47.02508 -21.24363 34182 ft 489 kts 242°
2026-04-18 15:30 46.99131 -21.33032 34182 ft 490 kts 242°
2026-04-18 15:30 46.95770 -21.41626 34184 ft 490 kts 242°
2026-04-18 15:31 46.92365 -21.50256 34185 ft 489 kts 242°
2026-04-18 15:31 46.88967 -21.58864 34171 ft 489 kts 242°
2026-04-18 15:32 46.85566 -21.67477 34175 ft 489 kts 242°
2026-04-18 15:32 46.82174 -21.76026 34173 ft 490 kts 242°
2026-04-18 15:33 46.78760 -21.84619 34176 ft 489 kts 242°
2026-04-18 15:33 46.75338 -21.93190 34173 ft 489 kts 241°
2026-04-18 15:34 46.71897 -22.01761 34176 ft 490 kts 241°
2026-04-18 15:34 46.68477 -22.10265 34172 ft 490 kts 242°
2026-04-18 15:35 46.65026 -22.18824 34162 ft 490 kts 241°
2026-04-18 15:35 46.61571 -22.27363 34167 ft 490 kts 241°
2026-04-18 15:36 46.58106 -22.35902 34164 ft 490 kts 241°
2026-04-18 15:36 46.54639 -22.44422 34166 ft 490 kts 241°
2026-04-18 15:37 46.51185 -22.52883 34163 ft 490 kts 241°
2026-04-18 15:37 46.47704 -22.61395 34163 ft 491 kts 241°
2026-04-18 15:38 46.44209 -22.69903 34149 ft 491 kts 241°
2026-04-18 15:38 46.40709 -22.78395 34142 ft 491 kts 241°
2026-04-18 15:39 46.37225 -22.86830 34145 ft 492 kts 241°
2026-04-18 15:39 46.33708 -22.95319 34141 ft 492 kts 241°
2026-04-18 15:40 46.30175 -23.03812 34130 ft 493 kts 242°
2026-04-18 15:40 46.26636 -23.12307 34128 ft 494 kts 241°
2026-04-18 15:41 46.23080 -23.20802 34129 ft 495 kts 242°
2026-04-18 15:41 46.19536 -23.29247 34126 ft 495 kts 242°
2026-04-18 15:42 46.15956 -23.37751 34127 ft 496 kts 242°
2026-04-18 15:42 46.12367 -23.46257 34129 ft 497 kts 242°
2026-04-18 15:43 46.08756 -23.54781 34126 ft 498 kts 242°
2026-04-18 15:43 46.05161 -23.63243 34108 ft 499 kts 242°
2026-04-18 15:44 46.01533 -23.71772 34100 ft 500 kts 242°
2026-04-18 15:44 45.97891 -23.80298 34103 ft 501 kts 241°
2026-04-18 15:45 45.94232 -23.88839 34099 ft 501 kts 241°
2026-04-18 15:45 45.90591 -23.97298 34102 ft 502 kts 241°
2026-04-18 15:46 45.86915 -24.05817 34100 ft 502 kts 241°
2026-04-18 15:46 45.83236 -24.14332 34102 ft 502 kts 241°
2026-04-18 15:47 45.79547 -24.22829 34093 ft 502 kts 241°
2026-04-18 15:47 45.75883 -24.31237 34091 ft 501 kts 241°
2026-04-18 15:48 45.72191 -24.39692 34087 ft 500 kts 241°
2026-04-18 15:48 45.68501 -24.48119 34085 ft 500 kts 241°
2026-04-18 15:49 45.64806 -24.56526 34093 ft 499 kts 240°
2026-04-18 15:49 45.61141 -24.64846 34087 ft 498 kts 240°
2026-04-18 15:50 45.57449 -24.73194 34092 ft 496 kts 240°
2026-04-18 15:50 45.53756 -24.81511 34090 ft 496 kts 240°
2026-04-18 15:51 45.50074 -24.89808 34088 ft 495 kts 240°
2026-04-18 15:51 45.46406 -24.98027 34086 ft 495 kts 240°
2026-04-18 15:52 45.42717 -25.06281 34082 ft 494 kts 240°
2026-04-18 15:52 45.39023 -25.14513 34086 ft 493 kts 240°
2026-04-18 15:53 45.35333 -25.22739 34085 ft 493 kts 240°
2026-04-18 15:53 45.31629 -25.30939 34084 ft 493 kts 240°
2026-04-18 15:54 45.27944 -25.39072 34080 ft 493 kts 240°
2026-04-18 15:54 45.24234 -25.47256 34082 ft 493 kts 240°
2026-04-18 15:55 45.20525 -25.55429 34080 ft 493 kts 240°
2026-04-18 15:55 45.16821 -25.63539 34085 ft 493 kts 240°
2026-04-18 15:56 45.13087 -25.71684 34077 ft 493 kts 240°
2026-04-18 15:56 45.09358 -25.79829 34085 ft 493 kts 239°
2026-04-18 15:57 45.05607 -25.87957 34078 ft 494 kts 239°
2026-04-18 15:57 45.01854 -25.96092 34078 ft 494 kts 239°
2026-04-18 15:58 44.98115 -26.04156 34084 ft 494 kts 239°
2026-04-18 15:58 44.94349 -26.12275 34077 ft 495 kts 239°
2026-04-18 15:59 44.90575 -26.20392 34078 ft 494 kts 239°
2026-04-18 15:59 44.86794 -26.28502 34072 ft 495 kts 239°
2026-04-18 16:00 44.83027 -26.36539 34073 ft 495 kts 239°
2026-04-18 16:00 44.79233 -26.44626 34069 ft 495 kts 239°
2026-04-18 16:01 44.75428 -26.52707 34068 ft 495 kts 239°
2026-04-18 16:01 44.71620 -26.60776 34063 ft 495 kts 239°
2026-04-18 16:02 44.67833 -26.68780 34056 ft 495 kts 239°
2026-04-18 16:02 44.64014 -26.76829 34053 ft 495 kts 239°
2026-04-18 16:03 44.60191 -26.84865 34054 ft 494 kts 239°
2026-04-18 16:03 44.56364 -26.92878 34052 ft 495 kts 239°
2026-04-18 16:04 44.52557 -27.00825 34053 ft 494 kts 239°
2026-04-18 16:04 44.48722 -27.08812 34053 ft 494 kts 239°
2026-04-18 16:05 44.44885 -27.16784 34030 ft 494 kts 239°
2026-04-18 16:05 44.41045 -27.24739 34043 ft 493 kts 239°
2026-04-18 16:06 44.37223 -27.32634 34030 ft 493 kts 238°
2026-04-18 16:06 44.33377 -27.40563 34045 ft 493 kts 238°
2026-04-18 16:07 44.29518 -27.48494 34039 ft 493 kts 238°
2026-04-18 16:07 44.25652 -27.56406 34047 ft 493 kts 238°
2026-04-18 16:08 44.21782 -27.64313 34024 ft 494 kts 238°
2026-04-18 16:08 44.17933 -27.72157 34022 ft 494 kts 238°
2026-04-18 16:09 44.14043 -27.80058 34012 ft 494 kts 238°
2026-04-18 16:09 44.10151 -27.87951 34014 ft 494 kts 238°
2026-04-18 16:10 44.06256 -27.95834 34018 ft 494 kts 238°
2026-04-18 16:10 44.02379 -28.03646 34045 ft 495 kts 238°
2026-04-18 16:11 43.98465 -28.11514 34050 ft 494 kts 238°
2026-04-18 16:11 43.94552 -28.19362 34032 ft 495 kts 238°
2026-04-18 16:12 43.90626 -28.27209 34049 ft 495 kts 238°
2026-04-18 16:12 43.86728 -28.34981 34049 ft 494 kts 238°
2026-04-18 16:13 43.82799 -28.42793 34031 ft 494 kts 238°
2026-04-18 16:13 43.78870 -28.50594 34050 ft 494 kts 238°
2026-04-18 16:14 43.74938 -28.58378 34050 ft 494 kts 238°
2026-04-18 16:14 43.71028 -28.66094 34035 ft 493 kts 238°
2026-04-18 16:15 43.65120 -28.77701 34048 ft 492 kts 238°
2026-04-18 16:16 43.61183 -28.85413 34046 ft 491 kts 238°
2026-04-18 16:16 43.57243 -28.93107 34045 ft 491 kts 238°
2026-04-18 16:17 43.53336 -29.00726 34047 ft 489 kts 238°
2026-04-18 16:17 43.49402 -29.08372 34047 ft 489 kts 237°
2026-04-18 16:18 43.45466 -29.15996 34049 ft 488 kts 238°
2026-04-18 16:18 43.41534 -29.23603 34031 ft 488 kts 237°
2026-04-18 16:19 43.37625 -29.31136 34049 ft 487 kts 237°
2026-04-18 16:19 43.33693 -29.38706 34047 ft 486 kts 237°
2026-04-18 16:20 43.29758 -29.46257 34046 ft 486 kts 237°
2026-04-18 16:20 43.25823 -29.53790 34045 ft 486 kts 237°
2026-04-18 16:21 43.21910 -29.61264 34056 ft 485 kts 237°
2026-04-18 16:21 43.17966 -29.68774 34062 ft 485 kts 237°
2026-04-18 16:22 43.14017 -29.76276 34062 ft 485 kts 237°
2026-04-18 16:22 43.10094 -29.83724 34064 ft 486 kts 237°
2026-04-18 16:23 43.06131 -29.91202 34064 ft 485 kts 237°
2026-04-18 16:23 43.00216 -30.02442 34064 ft 485 kts 237°
2026-04-18 16:24 42.95944 -30.09594 34064 ft 486 kts 232°
2026-04-18 16:24 42.91680 -30.16620 34062 ft 482 kts 237°
2026-04-18 16:25 42.87781 -30.24042 34063 ft 482 kts 238°
2026-04-18 16:25 42.83927 -30.31511 34062 ft 482 kts 238°
2026-04-18 16:26 42.80070 -30.38973 34063 ft 482 kts 238°
2026-04-18 16:26 42.76253 -30.46393 34063 ft 482 kts 238°
2026-04-18 16:27 42.72408 -30.53856 34066 ft 482 kts 238°
2026-04-18 16:27 42.68558 -30.61311 34062 ft 482 kts 238°
2026-04-18 16:28 42.64703 -30.68761 34062 ft 482 kts 238°
2026-04-18 16:28 42.60875 -30.76148 34062 ft 482 kts 238°
2026-04-18 16:29 42.57012 -30.83570 34064 ft 481 kts 238°
2026-04-18 16:29 42.53148 -30.90979 34063 ft 481 kts 238°
2026-04-18 16:30 42.49291 -30.98375 34061 ft 480 kts 238°
2026-04-18 16:30 42.45451 -31.05711 34062 ft 480 kts 238°
2026-04-18 16:31 42.41581 -31.13081 34064 ft 480 kts 238°
2026-04-18 16:31 42.37714 -31.20426 34078 ft 479 kts 238°
2026-04-18 16:32 42.33837 -31.27764 34082 ft 479 kts 238°
2026-04-18 16:32 42.29960 -31.35081 34080 ft 479 kts 238°
2026-04-18 16:33 42.26110 -31.42353 34083 ft 479 kts 238°
2026-04-18 16:33 42.22225 -31.49657 34079 ft 479 kts 238°
2026-04-18 16:34 42.18341 -31.56948 34084 ft 479 kts 238°
2026-04-18 16:34 42.14448 -31.64232 34081 ft 479 kts 238°
2026-04-18 16:35 42.10584 -31.71459 34082 ft 479 kts 238°
2026-04-18 16:35 42.06685 -31.78728 34080 ft 479 kts 238°
2026-04-18 16:36 42.02780 -31.85989 34079 ft 479 kts 238°
2026-04-18 16:36 41.98876 -31.93238 34083 ft 479 kts 238°
2026-04-18 16:37 41.94981 -32.00425 34084 ft 479 kts 238°
2026-04-18 16:37 41.91065 -32.07654 34081 ft 479 kts 238°
2026-04-18 16:38 41.87139 -32.14884 34083 ft 479 kts 238°
2026-04-18 16:38 41.83215 -32.22098 34082 ft 479 kts 238°
2026-04-18 16:39 41.79282 -32.29303 34085 ft 479 kts 237°
2026-04-18 16:39 41.75367 -32.36444 34081 ft 479 kts 238°
2026-04-18 16:40 41.71426 -32.43631 34081 ft 479 kts 238°
2026-04-18 16:40 41.67488 -32.50806 34081 ft 478 kts 238°
2026-04-18 16:41 41.61578 -32.61508 34080 ft 478 kts 237°
2026-04-18 16:42 41.57640 -32.68631 34080 ft 478 kts 238°
2026-04-18 16:42 41.53689 -32.75763 34082 ft 477 kts 237°
2026-04-18 16:43 41.49734 -32.82882 34083 ft 477 kts 238°
2026-04-18 16:43 41.45785 -32.89979 34079 ft 477 kts 237°
2026-04-18 16:44 41.41824 -32.97061 34082 ft 476 kts 237°
2026-04-18 16:44 41.37870 -33.04143 34127 ft 475 kts 237°
2026-04-18 16:44 41.35933 -33.07601 34353 ft 473 kts 237°
2026-04-18 16:45 41.33959 -33.11116 34615 ft 473 kts 237°
2026-04-18 16:45 41.31987 -33.14620 34865 ft 473 kts 237°
2026-04-18 16:45 41.30019 -33.18118 35115 ft 472 kts 238°
2026-04-18 16:45 41.28059 -33.21605 35368 ft 471 kts 238°
2026-04-18 16:46 41.26101 -33.25091 35612 ft 470 kts 238°
2026-04-18 16:46 41.24144 -33.28561 35846 ft 469 kts 238°
2026-04-18 16:46 41.22185 -33.32021 36011 ft 469 kts 238°
2026-04-18 16:47 41.18290 -33.38892 36067 ft 468 kts 238°
2026-04-18 16:47 41.14389 -33.45783 36079 ft 467 kts 238°
2026-04-18 16:48 41.10483 -33.52656 36078 ft 466 kts 238°
2026-04-18 16:48 41.06574 -33.59513 36082 ft 466 kts 238°
2026-04-18 16:49 41.02662 -33.66354 36084 ft 466 kts 238°
2026-04-18 16:49 40.98753 -33.73188 36081 ft 466 kts 238°
2026-04-18 16:50 40.94868 -33.79974 36084 ft 466 kts 238°
2026-04-18 16:50 40.90939 -33.86806 36082 ft 467 kts 238°
2026-04-18 16:51 40.87008 -33.93637 36082 ft 467 kts 237°
2026-04-18 16:51 40.83070 -34.00455 36081 ft 467 kts 237°
2026-04-18 16:52 40.79127 -34.07266 36080 ft 466 kts 237°
2026-04-18 16:52 40.75224 -34.13986 36084 ft 464 kts 237°
2026-04-18 16:53 40.71297 -34.20746 36079 ft 464 kts 237°
2026-04-18 16:53 40.67367 -34.27496 36082 ft 464 kts 237°
2026-04-18 16:54 40.63429 -34.34248 36080 ft 465 kts 237°
2026-04-18 16:54 40.59486 -34.40998 36084 ft 465 kts 237°
2026-04-18 16:55 40.55565 -34.47688 36082 ft 465 kts 237°
2026-04-18 16:55 40.51610 -34.54407 36084 ft 465 kts 237°
2026-04-18 16:56 40.47657 -34.61125 36080 ft 465 kts 237°
2026-04-18 16:56 40.43703 -34.67835 36083 ft 464 kts 237°
2026-04-18 16:57 40.39773 -34.74492 36079 ft 464 kts 237°
2026-04-18 16:57 40.35813 -34.81170 36081 ft 464 kts 237°
2026-04-18 16:58 40.31848 -34.87836 36083 ft 463 kts 237°
2026-04-18 16:58 40.27889 -34.94489 36083 ft 463 kts 237°
2026-04-18 16:59 40.23925 -35.01138 36083 ft 463 kts 237°
2026-04-18 16:59 40.19963 -35.07761 36086 ft 462 kts 237°
2026-04-18 17:00 40.16031 -35.14337 36087 ft 462 kts 237°
2026-04-18 17:00 40.12064 -35.20935 36089 ft 462 kts 236°
2026-04-18 17:01 40.08099 -35.27519 36090 ft 461 kts 236°
2026-04-18 17:01 40.04133 -35.34089 36089 ft 461 kts 236°
2026-04-18 17:02 40.00169 -35.40658 36091 ft 460 kts 236°
2026-04-18 17:02 39.96227 -35.47168 36091 ft 461 kts 236°
2026-04-18 17:03 39.92253 -35.53733 36089 ft 462 kts 236°
2026-04-18 17:03 39.88266 -35.60290 36090 ft 461 kts 236°
2026-04-18 17:04 39.84282 -35.66835 36092 ft 461 kts 236°
2026-04-18 17:04 39.80300 -35.73365 36090 ft 461 kts 236°
2026-04-18 17:05 39.76335 -35.79838 36091 ft 460 kts 236°
2026-04-18 17:05 39.72348 -35.86344 36094 ft 460 kts 236°
2026-04-18 17:06 39.68352 -35.92843 36090 ft 460 kts 236°
2026-04-18 17:06 39.64354 -35.99333 36090 ft 460 kts 236°
2026-04-18 17:07 39.60381 -36.05773 36092 ft 460 kts 236°
2026-04-18 17:07 39.56380 -36.12248 36089 ft 460 kts 236°
2026-04-18 17:08 39.52381 -36.18716 36079 ft 460 kts 236°
2026-04-18 17:08 39.48372 -36.25178 36068 ft 461 kts 236°
2026-04-18 17:09 39.44382 -36.31597 36058 ft 460 kts 236°
2026-04-18 17:09 39.40365 -36.38042 36059 ft 461 kts 236°
2026-04-18 17:10 39.36333 -36.44499 36063 ft 461 kts 236°
2026-04-18 17:10 39.32305 -36.50937 36059 ft 461 kts 236°
2026-04-18 17:11 39.28294 -36.57338 36066 ft 461 kts 236°
2026-04-18 17:11 39.24256 -36.63766 36066 ft 461 kts 236°
2026-04-18 17:12 39.20212 -36.70197 36068 ft 461 kts 236°
2026-04-18 17:12 39.16161 -36.76618 36063 ft 462 kts 236°
2026-04-18 17:13 39.12109 -36.83030 36066 ft 461 kts 236°
2026-04-18 17:13 39.08082 -36.89392 36065 ft 462 kts 235°
2026-04-18 17:14 39.04020 -36.95794 36070 ft 462 kts 235°
2026-04-18 17:14 38.99954 -37.02187 36070 ft 462 kts 235°
2026-04-18 17:15 38.95882 -37.08578 36076 ft 462 kts 235°
2026-04-18 17:15 38.91838 -37.14912 36071 ft 462 kts 235°
2026-04-18 17:16 38.87757 -37.21293 36073 ft 463 kts 235°
2026-04-18 17:16 38.83669 -37.27675 36071 ft 463 kts 235°
2026-04-18 17:17 38.79579 -37.34039 36085 ft 463 kts 235°
2026-04-18 17:17 38.75509 -37.40359 36088 ft 463 kts 235°
2026-04-18 17:18 38.71411 -37.46722 36096 ft 463 kts 235°
2026-04-18 17:18 38.67308 -37.53079 36096 ft 463 kts 235°
2026-04-18 17:19 38.63198 -37.59431 36104 ft 463 kts 235°
2026-04-18 17:19 38.59078 -37.65782 36100 ft 464 kts 235°
2026-04-18 17:20 38.54980 -37.72081 36103 ft 464 kts 235°
2026-04-18 17:20 38.50848 -37.78420 36100 ft 464 kts 235°
2026-04-18 17:21 38.46715 -37.84759 36100 ft 465 kts 235°
2026-04-18 17:21 38.42576 -37.91095 36097 ft 465 kts 235°
2026-04-18 17:22 38.38425 -37.97433 36099 ft 465 kts 235°
2026-04-18 17:22 38.34307 -38.03728 36102 ft 466 kts 235°
2026-04-18 17:23 38.30146 -38.10048 36110 ft 466 kts 234°
2026-04-18 17:23 38.25980 -38.16368 36108 ft 466 kts 235°
2026-04-18 17:24 38.21810 -38.22681 36114 ft 466 kts 234°
2026-04-18 17:24 38.17669 -38.28943 36109 ft 466 kts 234°
2026-04-18 17:25 38.13494 -38.35251 36110 ft 466 kts 234°
2026-04-18 17:25 38.09318 -38.41541 36106 ft 465 kts 234°
2026-04-18 17:26 38.05144 -38.47820 36112 ft 466 kts 234°
2026-04-18 17:26 38.00988 -38.54048 36109 ft 465 kts 234°
2026-04-18 17:27 37.96807 -38.60309 36110 ft 465 kts 234°
2026-04-18 17:27 37.90511 -38.69701 36107 ft 467 kts 234°
2026-04-18 17:28 37.86302 -38.75973 36107 ft 467 kts 234°
2026-04-18 17:28 37.82130 -38.82177 36111 ft 466 kts 234°
2026-04-18 17:29 37.77921 -38.88428 36116 ft 467 kts 234°
2026-04-18 17:29 37.73710 -38.94662 36122 ft 466 kts 234°
2026-04-18 17:30 37.69501 -39.00887 36124 ft 466 kts 234°
2026-04-18 17:30 37.65289 -39.07106 36118 ft 466 kts 234°
2026-04-18 17:31 37.61101 -39.13276 36121 ft 466 kts 234°
2026-04-18 17:31 37.56876 -39.19481 36121 ft 466 kts 233°
2026-04-18 17:32 37.52656 -39.25671 36117 ft 466 kts 233°
2026-04-18 17:32 37.48434 -39.31861 36115 ft 466 kts 233°
2026-04-18 17:33 37.42120 -39.41089 36122 ft 466 kts 233°
2026-04-18 17:34 37.37885 -39.47252 36125 ft 466 kts 233°
2026-04-18 17:34 37.33649 -39.53412 36116 ft 466 kts 233°
2026-04-18 17:35 37.29407 -39.59573 36122 ft 466 kts 233°
2026-04-18 17:35 37.25189 -39.65677 36124 ft 466 kts 233°
2026-04-18 17:36 37.20941 -39.71826 36129 ft 466 kts 233°
2026-04-18 17:36 37.16689 -39.77965 36134 ft 466 kts 233°
2026-04-18 17:37 37.13150 -39.83070 36128 ft 466 kts 233°
2026-04-18 17:37 37.08201 -39.90205 36133 ft 467 kts 233°
2026-04-18 17:38 37.03932 -39.96338 36116 ft 468 kts 233°
2026-04-18 17:38 37.00432 -40.01486 36112 ft 466 kts 236°
2026-04-18 17:39 36.96190 -40.07643 36117 ft 469 kts 231°
2026-04-18 17:39 36.91853 -40.13703 36109 ft 466 kts 234°
2026-04-18 17:40 36.87204 -40.21102 36115 ft 466 kts 236°
2026-04-18 17:40 36.83895 -40.26484 36111 ft 466 kts 236°
2026-04-18 17:41 36.79974 -40.32866 36108 ft 467 kts 237°
2026-04-18 17:41 36.76038 -40.39302 36109 ft 467 kts 237°
2026-04-18 17:42 36.72100 -40.45735 36113 ft 466 kts 237°
2026-04-18 17:42 36.68157 -40.52162 36114 ft 467 kts 236°
2026-04-18 17:43 36.64207 -40.58589 36119 ft 467 kts 237°
2026-04-18 17:43 36.60289 -40.64973 36116 ft 468 kts 236°
2026-04-18 17:44 36.56331 -40.71398 36117 ft 467 kts 236°
2026-04-18 17:44 36.52370 -40.77807 36117 ft 468 kts 236°
2026-04-18 17:45 36.48405 -40.84221 36125 ft 467 kts 236°
2026-04-18 17:45 36.44471 -40.90581 36112 ft 468 kts 236°
2026-04-18 17:46 36.40500 -40.96978 36117 ft 467 kts 236°
2026-04-18 17:46 36.36524 -41.03364 36108 ft 468 kts 236°
2026-04-18 17:47 36.32544 -41.09748 36112 ft 468 kts 236°
2026-04-18 17:47 36.28588 -41.16082 36110 ft 468 kts 236°
2026-04-18 17:48 36.24600 -41.22450 36113 ft 468 kts 236°
2026-04-18 17:48 36.20612 -41.28816 36110 ft 468 kts 236°
2026-04-18 17:49 36.16616 -41.35180 36108 ft 468 kts 236°
2026-04-18 17:49 36.12612 -41.41540 36113 ft 468 kts 236°
2026-04-18 17:50 36.08635 -41.47848 36111 ft 468 kts 236°
2026-04-18 17:50 36.04629 -41.54201 36109 ft 468 kts 236°
2026-04-18 17:51 36.00614 -41.60549 36119 ft 469 kts 236°
2026-04-18 17:51 35.96593 -41.66889 36114 ft 469 kts 236°
2026-04-18 17:52 35.92565 -41.73235 36119 ft 470 kts 236°
2026-04-18 17:52 35.88554 -41.79530 36124 ft 470 kts 235°
2026-04-18 17:53 35.84515 -41.85864 36117 ft 470 kts 236°
2026-04-18 17:53 35.80476 -41.92194 36116 ft 470 kts 236°
2026-04-18 17:54 35.76438 -41.98519 36116 ft 470 kts 236°
2026-04-18 17:54 35.72418 -42.04791 36117 ft 470 kts 235°
2026-04-18 17:55 35.68365 -42.11100 36123 ft 470 kts 235°
2026-04-18 17:55 35.64312 -42.17400 36125 ft 470 kts 235°
2026-04-18 17:56 35.60254 -42.23697 36129 ft 469 kts 235°
2026-04-18 17:56 35.54169 -42.33124 36125 ft 469 kts 235°
2026-04-18 17:57 35.48102 -42.42490 36126 ft 470 kts 235°
2026-04-18 17:58 35.39961 -42.55014 36122 ft 470 kts 235°
2026-04-18 17:59 35.33882 -42.64347 36128 ft 469 kts 235°
2026-04-18 18:00 35.27758 -42.73715 36124 ft 470 kts 235°
2026-04-18 18:01 35.19583 -42.86189 36131 ft 470 kts 234°
2026-04-18 18:02 35.11421 -42.98597 36128 ft 470 kts 234°
2026-04-18 18:02 35.05274 -43.07911 36123 ft 469 kts 234°
2026-04-18 18:03 34.99124 -43.17208 36132 ft 469 kts 234°
2026-04-18 18:04 34.92989 -43.26454 36130 ft 470 kts 234°
2026-04-18 18:05 34.84756 -43.38827 36132 ft 470 kts 234°
2026-04-18 18:05 34.80630 -43.45010 36121 ft 470 kts 234°
2026-04-18 18:06 34.74437 -43.54272 36125 ft 471 kts 234°
2026-04-18 18:07 34.70326 -43.60401 36127 ft 471 kts 234°
2026-04-18 18:07 34.64112 -43.69657 36126 ft 471 kts 234°
2026-04-18 18:08 34.59961 -43.75825 36142 ft 471 kts 234°
2026-04-18 18:08 34.55810 -43.81981 36128 ft 472 kts 234°
2026-04-18 18:09 34.51682 -43.88092 36128 ft 472 kts 234°
2026-04-18 18:09 34.47519 -43.94245 36144 ft 472 kts 233°
2026-04-18 18:10 34.43347 -44.00397 36133 ft 472 kts 233°
2026-04-18 18:10 34.39175 -44.06543 36132 ft 472 kts 233°
2026-04-18 18:11 34.35028 -44.12643 36138 ft 473 kts 233°
2026-04-18 18:11 34.30851 -44.18775 36144 ft 472 kts 233°
2026-04-18 18:12 34.26661 -44.24909 36129 ft 473 kts 233°
2026-04-18 18:12 34.22477 -44.31027 36145 ft 472 kts 233°
2026-04-18 18:13 34.18286 -44.37143 36128 ft 472 kts 233°
2026-04-18 18:13 34.14095 -44.43254 36143 ft 472 kts 233°
2026-04-18 18:14 34.09930 -44.49315 36146 ft 472 kts 233°
2026-04-18 18:14 34.05737 -44.55407 36129 ft 472 kts 233°
2026-04-18 18:15 34.01539 -44.61491 36144 ft 472 kts 233°
2026-04-18 18:15 33.97341 -44.67569 36117 ft 472 kts 233°
2026-04-18 18:16 33.93166 -44.73601 36120 ft 472 kts 233°
2026-04-18 18:16 33.88965 -44.79666 36118 ft 472 kts 233°
2026-04-18 18:17 33.84754 -44.85728 36117 ft 472 kts 233°
2026-04-18 18:17 33.80547 -44.91778 36114 ft 472 kts 233°
2026-04-18 18:18 33.76334 -44.97821 36131 ft 471 kts 233°
2026-04-18 18:18 33.72129 -45.03850 36123 ft 471 kts 233°
2026-04-18 18:19 33.67946 -45.09836 36124 ft 470 kts 232°
2026-04-18 18:19 33.63739 -45.15847 36125 ft 470 kts 232°
2026-04-18 18:20 33.59527 -45.21854 36129 ft 470 kts 232°
2026-04-18 18:20 33.55310 -45.27857 36131 ft 470 kts 232°
2026-04-18 18:21 33.51095 -45.33844 36133 ft 470 kts 232°
2026-04-18 18:21 33.46880 -45.39828 36130 ft 470 kts 232°
2026-04-18 18:22 33.42686 -45.45764 36134 ft 470 kts 232°
2026-04-18 18:22 33.38468 -45.51729 36127 ft 470 kts 232°
2026-04-18 18:23 33.34244 -45.57692 36127 ft 470 kts 232°
2026-04-18 18:23 33.30017 -45.63648 36128 ft 469 kts 232°
2026-04-18 18:24 33.25791 -45.69597 36130 ft 470 kts 232°
2026-04-18 18:24 33.21585 -45.75506 36129 ft 470 kts 232°
2026-04-18 18:25 33.17348 -45.81445 36129 ft 470 kts 232°
2026-04-18 18:25 33.13104 -45.87382 36124 ft 470 kts 232°
2026-04-18 18:26 33.08866 -45.93309 36132 ft 470 kts 232°
2026-04-18 18:26 33.04624 -45.99243 36124 ft 470 kts 232°
2026-04-18 18:27 33.00370 -46.05164 36125 ft 470 kts 231°
2026-04-18 18:27 32.96123 -46.11078 36126 ft 470 kts 231°
2026-04-18 18:28 32.91893 -46.16945 36127 ft 470 kts 231°
2026-04-18 18:28 32.87632 -46.22851 36126 ft 470 kts 231°
2026-04-18 18:29 32.83365 -46.28755 36125 ft 470 kts 231°
2026-04-18 18:29 32.79105 -46.34659 36127 ft 470 kts 231°
2026-04-18 18:30 32.74858 -46.40508 36119 ft 470 kts 231°
2026-04-18 18:30 32.70587 -46.46392 36116 ft 470 kts 231°
2026-04-18 18:31 32.66316 -46.52273 36122 ft 471 kts 231°
2026-04-18 18:31 32.62028 -46.58150 36118 ft 471 kts 231°
2026-04-18 18:32 32.57744 -46.64026 36116 ft 471 kts 231°
2026-04-18 18:32 32.53490 -46.69861 36123 ft 471 kts 231°
2026-04-18 18:33 32.49201 -46.75722 36118 ft 471 kts 231°
2026-04-18 18:33 32.44904 -46.81590 36119 ft 471 kts 231°
2026-04-18 18:34 32.40604 -46.87444 36120 ft 471 kts 231°
2026-04-18 18:34 32.36305 -46.93290 36117 ft 471 kts 230°
2026-04-18 18:35 32.32031 -46.99106 36119 ft 471 kts 230°
2026-04-18 18:35 32.27718 -47.04941 36117 ft 471 kts 230°
2026-04-18 18:36 32.23407 -47.10780 36116 ft 472 kts 230°
2026-04-18 18:36 32.19095 -47.16617 36118 ft 472 kts 230°
2026-04-18 18:37 32.14775 -47.22451 36116 ft 472 kts 230°
2026-04-18 18:37 32.10479 -47.28231 36121 ft 472 kts 230°
2026-04-18 18:38 32.06156 -47.34055 36126 ft 472 kts 230°
2026-04-18 18:38 32.01824 -47.39869 36123 ft 472 kts 230°
2026-04-18 18:39 31.97486 -47.45684 36132 ft 472 kts 229°
2026-04-18 18:39 31.93180 -47.51460 36128 ft 473 kts 229°
2026-04-18 18:40 31.88833 -47.57266 36136 ft 473 kts 229°
2026-04-18 18:40 31.84488 -47.63073 36125 ft 473 kts 229°
2026-04-18 18:41 31.80132 -47.68873 36125 ft 473 kts 229°
2026-04-18 18:41 31.75778 -47.74664 36129 ft 473 kts 229°
2026-04-18 18:42 31.71419 -47.80451 36126 ft 473 kts 229°
2026-04-18 18:42 31.67092 -47.86194 36129 ft 473 kts 229°
2026-04-18 18:43 31.60556 -47.94866 36126 ft 473 kts 229°
2026-04-18 18:44 31.56193 -48.00634 36122 ft 473 kts 229°
2026-04-18 18:44 31.51850 -48.06365 36070 ft 473 kts 229°
2026-04-18 18:45 31.47477 -48.12123 36057 ft 473 kts 229°
2026-04-18 18:45 31.43100 -48.17877 36051 ft 473 kts 229°
2026-04-18 18:46 31.38722 -48.23627 36051 ft 473 kts 229°
2026-04-18 18:46 31.34376 -48.29328 36055 ft 473 kts 229°
2026-04-18 18:47 31.29994 -48.35060 36059 ft 473 kts 229°
2026-04-18 18:47 31.25611 -48.40797 36056 ft 473 kts 229°
2026-04-18 18:48 31.21225 -48.46525 36054 ft 473 kts 228°
2026-04-18 18:48 31.16828 -48.52255 36057 ft 473 kts 228°
2026-04-18 18:49 31.12460 -48.57938 36056 ft 473 kts 228°
2026-04-18 18:49 31.08058 -48.63655 36051 ft 473 kts 228°
2026-04-18 18:50 31.03663 -48.69362 36049 ft 473 kts 228°
2026-04-18 18:50 30.99260 -48.75070 36055 ft 474 kts 228°
2026-04-18 18:51 30.94847 -48.80779 36053 ft 474 kts 228°
2026-04-18 18:51 30.90462 -48.86446 36057 ft 474 kts 228°
2026-04-18 18:52 30.86048 -48.92142 36056 ft 474 kts 228°
2026-04-18 18:52 30.81627 -48.97835 36050 ft 474 kts 227°
2026-04-18 18:53 30.77204 -49.03525 36058 ft 474 kts 227°
2026-04-18 18:53 30.72811 -49.09174 36053 ft 474 kts 227°
2026-04-18 18:54 30.68383 -49.14852 36054 ft 474 kts 227°
2026-04-18 18:54 30.63952 -49.20527 36043 ft 474 kts 227°
2026-04-18 18:55 30.59522 -49.26190 36057 ft 474 kts 227°
2026-04-18 18:55 30.55092 -49.31846 36051 ft 474 kts 227°
2026-04-18 18:56 30.50686 -49.37467 36055 ft 474 kts 227°
2026-04-18 18:56 30.46246 -49.43120 36053 ft 474 kts 227°
2026-04-18 18:57 30.41806 -49.48762 36056 ft 474 kts 227°
2026-04-18 18:57 30.37358 -49.54408 36056 ft 474 kts 227°
2026-04-18 18:58 30.32909 -49.60049 36054 ft 475 kts 227°
2026-04-18 18:58 30.28455 -49.65688 36058 ft 475 kts 227°
2026-04-18 18:59 30.24029 -49.71285 36054 ft 475 kts 226°
2026-04-18 18:59 30.19565 -49.76915 36059 ft 475 kts 226°
2026-04-18 19:00 30.15104 -49.82539 36046 ft 475 kts 226°
2026-04-18 19:00 30.10640 -49.88157 36056 ft 475 kts 226°
2026-04-18 19:01 30.06172 -49.93770 36053 ft 475 kts 226°
2026-04-18 19:01 30.01734 -49.99344 36054 ft 475 kts 227°
2026-04-18 19:02 29.97267 -50.04939 36151 ft 472 kts 224°
2026-04-18 19:02 29.94904 -50.07569 36360 ft 472 kts 223°
2026-04-18 19:02 29.92566 -50.10221 36619 ft 473 kts 225°
2026-04-18 19:02 29.90305 -50.12974 36868 ft 473 kts 227°
2026-04-18 19:03 29.88111 -50.15794 37119 ft 472 kts 228°
2026-04-18 19:03 29.85982 -50.18585 37371 ft 468 kts 228°
2026-04-18 19:03 29.83839 -50.21397 37599 ft 465 kts 228°
2026-04-18 19:04 29.79573 -50.26992 37963 ft 465 kts 228°
2026-04-18 19:04 29.77444 -50.29801 38029 ft 466 kts 228°
2026-04-18 19:04 29.73178 -50.35396 38047 ft 465 kts 228°
2026-04-18 19:05 29.66841 -50.43770 38052 ft 464 kts 228°
2026-04-18 19:06 29.62601 -50.49351 38054 ft 464 kts 228°
2026-04-18 19:06 29.56235 -50.57715 38054 ft 463 kts 228°
2026-04-18 19:07 29.52014 -50.63248 38054 ft 463 kts 228°
2026-04-18 19:07 29.47768 -50.68803 38055 ft 463 kts 228°
2026-04-18 19:08 29.43519 -50.74361 38054 ft 463 kts 228°
2026-04-18 19:08 29.39274 -50.79906 38055 ft 463 kts 228°
2026-04-18 19:09 29.35025 -50.85449 38054 ft 462 kts 228°
2026-04-18 19:09 29.30806 -50.90942 38056 ft 462 kts 228°
2026-04-18 19:10 29.26555 -50.96470 38053 ft 462 kts 228°
2026-04-18 19:10 29.22303 -51.01992 38057 ft 462 kts 228°
2026-04-18 19:11 29.18049 -51.07513 38055 ft 462 kts 228°
2026-04-18 19:11 29.13821 -51.12985 38054 ft 462 kts 228°
2026-04-18 19:12 29.09564 -51.18490 38054 ft 462 kts 228°
2026-04-18 19:12 29.05307 -51.23984 38056 ft 461 kts 228°
2026-04-18 19:13 29.01051 -51.29476 38053 ft 461 kts 228°
2026-04-18 19:13 28.96828 -51.34917 38055 ft 461 kts 228°
2026-04-18 19:14 28.92567 -51.40397 38053 ft 461 kts 228°
2026-04-18 19:14 28.88310 -51.45865 38054 ft 461 kts 228°
2026-04-18 19:15 28.84045 -51.51341 38053 ft 461 kts 228°
2026-04-18 19:15 28.79808 -51.56769 38055 ft 461 kts 228°
2026-04-18 19:16 28.75540 -51.62230 38057 ft 461 kts 228°
2026-04-18 19:16 28.71275 -51.67678 38052 ft 461 kts 228°
2026-04-18 19:17 28.67005 -51.73129 38056 ft 461 kts 228°
2026-04-18 19:17 28.62763 -51.78532 38053 ft 461 kts 228°
2026-04-18 19:18 28.58491 -51.83972 38045 ft 461 kts 228°
2026-04-18 19:18 28.54219 -51.89401 38048 ft 461 kts 228°
2026-04-18 19:19 28.49939 -51.94833 38043 ft 460 kts 228°
2026-04-18 19:19 28.45696 -52.00212 38047 ft 460 kts 228°
2026-04-18 19:20 28.41423 -52.05622 38045 ft 461 kts 228°
2026-04-18 19:20 28.37141 -52.11036 38047 ft 461 kts 228°
2026-04-18 19:21 28.32853 -52.16448 38043 ft 461 kts 228°
2026-04-18 19:21 28.28596 -52.21817 38047 ft 461 kts 228°
2026-04-18 19:22 28.24308 -52.27223 38045 ft 461 kts 227°
2026-04-18 19:22 28.20014 -52.32623 38044 ft 461 kts 227°
2026-04-18 19:23 28.15717 -52.38020 38045 ft 461 kts 227°
2026-04-18 19:23 28.11449 -52.43375 38037 ft 461 kts 227°
2026-04-18 19:24 28.07146 -52.48765 38036 ft 462 kts 227°
2026-04-18 19:24 28.02839 -52.54152 38036 ft 462 kts 227°
2026-04-18 19:25 27.98528 -52.59541 38037 ft 462 kts 227°
2026-04-18 19:25 27.94239 -52.64894 38036 ft 461 kts 228°
2026-04-18 19:26 27.89935 -52.70259 38036 ft 460 kts 228°
2026-04-18 19:26 27.85637 -52.75610 38054 ft 459 kts 228°
2026-04-18 19:27 27.81339 -52.80953 38076 ft 460 kts 228°
2026-04-18 19:27 27.77038 -52.86296 38080 ft 460 kts 228°
2026-04-18 19:28 27.72753 -52.91605 38079 ft 460 kts 228°
2026-04-18 19:28 27.68443 -52.96946 38080 ft 460 kts 228°
2026-04-18 19:29 27.64127 -53.02288 38079 ft 461 kts 228°
2026-04-18 19:29 27.59803 -53.07623 38090 ft 461 kts 228°
2026-04-18 19:30 27.55508 -53.12926 38077 ft 461 kts 228°
2026-04-18 19:30 27.51178 -53.18268 38083 ft 462 kts 228°
2026-04-18 19:31 27.46843 -53.23605 38078 ft 462 kts 228°
2026-04-18 19:31 27.42504 -53.28939 38090 ft 462 kts 228°
2026-04-18 19:32 27.38188 -53.34239 38078 ft 462 kts 228°
2026-04-18 19:32 27.33841 -53.39570 38089 ft 462 kts 228°
2026-04-18 19:33 27.29492 -53.44892 38078 ft 463 kts 228°
2026-04-18 19:33 27.25141 -53.50216 38080 ft 462 kts 228°
2026-04-18 19:34 27.20819 -53.55497 38079 ft 462 kts 228°
2026-04-18 19:34 27.16467 -53.60805 38084 ft 461 kts 228°
2026-04-18 19:35 27.12122 -53.66102 38076 ft 461 kts 228°
2026-04-18 19:35 27.07774 -53.71393 38074 ft 460 kts 228°
2026-04-18 19:36 27.03461 -53.76635 38071 ft 460 kts 228°
2026-04-18 19:36 26.99124 -53.81897 38068 ft 459 kts 228°
2026-04-18 19:37 26.94792 -53.87147 38073 ft 458 kts 228°
2026-04-18 19:37 26.90464 -53.92387 38070 ft 458 kts 228°
2026-04-18 19:38 26.86174 -53.97578 38074 ft 457 kts 228°
2026-04-18 19:38 26.81862 -54.02791 38067 ft 456 kts 229°
2026-04-18 19:39 26.77537 -54.08006 38073 ft 458 kts 229°
2026-04-18 19:39 26.73202 -54.13230 38078 ft 458 kts 229°
2026-04-18 19:40 26.68868 -54.18448 38072 ft 457 kts 229°
2026-04-18 19:40 26.64567 -54.23618 38076 ft 456 kts 229°
2026-04-18 19:41 26.60244 -54.28811 38071 ft 456 kts 229°
2026-04-18 19:41 26.55920 -54.33996 38070 ft 456 kts 229°
2026-04-18 19:42 26.51599 -54.39168 38073 ft 455 kts 229°
2026-04-18 19:42 26.47308 -54.44305 38071 ft 455 kts 229°
2026-04-18 19:43 26.42988 -54.49474 38063 ft 455 kts 229°
2026-04-18 19:43 26.38674 -54.54630 38067 ft 454 kts 229°
2026-04-18 19:44 26.34352 -54.59774 38060 ft 455 kts 229°
2026-04-18 19:45 26.27891 -54.67474 38062 ft 456 kts 229°
2026-04-18 19:45 26.23557 -54.72629 38065 ft 456 kts 229°
2026-04-18 19:46 26.19217 -54.77785 38061 ft 456 kts 229°
2026-04-18 19:46 26.14869 -54.82942 38063 ft 457 kts 229°
2026-04-18 19:47 26.10539 -54.88066 38068 ft 458 kts 229°
2026-04-18 19:47 26.06175 -54.93236 38062 ft 458 kts 229°
2026-04-18 19:48 26.01789 -54.98391 38060 ft 459 kts 226°
2026-04-18 19:48 25.96871 -55.02960 38070 ft 462 kts 219°
2026-04-18 19:49 25.91782 -55.07201 38058 ft 458 kts 220°
2026-04-18 19:49 25.86787 -55.11592 38061 ft 458 kts 221°
2026-04-18 19:50 25.81808 -55.15990 38066 ft 458 kts 221°
2026-04-18 19:50 25.76809 -55.20389 38060 ft 459 kts 221°
2026-04-18 19:51 25.71842 -55.24763 38054 ft 459 kts 221°
2026-04-18 19:51 25.66834 -55.29170 38055 ft 460 kts 221°
2026-04-18 19:52 25.61821 -55.33574 38052 ft 460 kts 221°
2026-04-18 19:52 25.56803 -55.37979 38056 ft 460 kts 221°
2026-04-18 19:53 25.52630 -55.41640 38052 ft 461 kts 221°
2026-04-18 19:53 25.44283 -55.48952 38056 ft 460 kts 221°
2026-04-18 19:54 25.39253 -55.53348 38052 ft 460 kts 221°
2026-04-18 19:54 25.34235 -55.57734 38057 ft 460 kts 221°
2026-04-18 19:55 25.30062 -55.61376 38054 ft 460 kts 221°
2026-04-18 19:55 25.24226 -55.66465 38056 ft 460 kts 221°
2026-04-18 19:56 25.19207 -55.70834 38054 ft 459 kts 221°
2026-04-18 19:56 25.15044 -55.74457 38055 ft 458 kts 221°
2026-04-18 19:57 25.10042 -55.78805 38047 ft 457 kts 221°
2026-04-18 19:57 25.04235 -55.83846 38045 ft 457 kts 221°
2026-04-18 19:58 24.99243 -55.88174 38043 ft 456 kts 221°
2026-04-18 19:58 24.95103 -55.91762 38047 ft 455 kts 221°
2026-04-18 19:59 24.90125 -55.96067 38046 ft 454 kts 221°
2026-04-18 19:59 24.85159 -56.00358 38045 ft 453 kts 221°
2026-04-18 20:00 24.80193 -56.04645 38050 ft 455 kts 221°
2026-04-18 20:00 24.75243 -56.08918 38041 ft 455 kts 221°
2026-04-18 20:01 24.70262 -56.13212 38044 ft 455 kts 221°
2026-04-18 20:01 24.65293 -56.17492 38048 ft 453 kts 221°
2026-04-18 20:02 24.60326 -56.21760 38045 ft 453 kts 221°
2026-04-18 20:02 24.55367 -56.26021 38045 ft 452 kts 221°
2026-04-18 20:03 24.50445 -56.30244 38045 ft 452 kts 221°
2026-04-18 20:03 24.45501 -56.34483 38047 ft 451 kts 221°
2026-04-18 20:04 24.40551 -56.38723 38043 ft 451 kts 221°
2026-04-18 20:04 24.35609 -56.42951 38047 ft 450 kts 221°
2026-04-18 20:05 24.30698 -56.47146 38045 ft 450 kts 221°
2026-04-18 20:05 24.25761 -56.51359 38047 ft 450 kts 221°
2026-04-18 20:06 24.20815 -56.55581 38038 ft 450 kts 221°
2026-04-18 20:06 24.15872 -56.59796 38035 ft 451 kts 221°
2026-04-18 20:07 24.10924 -56.64009 38037 ft 450 kts 221°
2026-04-18 20:07 24.06006 -56.68188 38033 ft 451 kts 221°
2026-04-18 20:08 24.01045 -56.72400 38036 ft 451 kts 221°
2026-04-18 20:08 23.96085 -56.76610 38041 ft 451 kts 221°
2026-04-18 20:09 23.91146 -56.80799 38031 ft 447 kts 221°
2026-04-18 20:09 23.86267 -56.84930 38037 ft 446 kts 221°
2026-04-18 20:10 23.81358 -56.89084 38030 ft 446 kts 221°
2026-04-18 20:10 23.76446 -56.93234 38027 ft 447 kts 221°
2026-04-18 20:11 23.71524 -56.97390 38030 ft 447 kts 221°
2026-04-18 20:11 23.66633 -57.01515 38028 ft 448 kts 221°
2026-04-18 20:12 23.61708 -57.05668 38029 ft 448 kts 221°
2026-04-18 20:12 23.56772 -57.09823 38030 ft 448 kts 221°
2026-04-18 20:13 23.51839 -57.13971 38025 ft 448 kts 221°
2026-04-18 20:13 23.46937 -57.18090 38027 ft 448 kts 221°
2026-04-18 20:14 23.41996 -57.22238 38027 ft 448 kts 221°
2026-04-18 20:14 23.37056 -57.26379 38026 ft 448 kts 221°
2026-04-18 20:15 23.32115 -57.30525 38021 ft 448 kts 221°
2026-04-18 20:15 23.27212 -57.34633 38019 ft 448 kts 221°
2026-04-18 20:16 23.22269 -57.38766 38017 ft 448 kts 221°
2026-04-18 20:16 23.17330 -57.42885 38020 ft 447 kts 221°
2026-04-18 20:17 23.12398 -57.47004 38017 ft 447 kts 221°
2026-04-18 20:17 23.07467 -57.51119 38019 ft 447 kts 221°
2026-04-18 20:18 23.02569 -57.55205 38017 ft 447 kts 221°
2026-04-18 20:18 22.97636 -57.59304 38019 ft 447 kts 221°
2026-04-18 20:19 22.92705 -57.63403 38016 ft 446 kts 221°
2026-04-18 20:19 22.87785 -57.67491 38018 ft 446 kts 221°
2026-04-18 20:20 22.82898 -57.71554 38016 ft 445 kts 221°
2026-04-18 20:20 22.77979 -57.75624 38017 ft 445 kts 221°
2026-04-18 20:21 22.73068 -57.79692 38007 ft 444 kts 221°
2026-04-18 20:21 22.68159 -57.83758 38010 ft 444 kts 221°
2026-04-18 20:22 22.63253 -57.87815 38006 ft 444 kts 221°
2026-04-18 20:22 22.58381 -57.91837 38009 ft 443 kts 221°
2026-04-18 20:23 22.53476 -57.95883 38008 ft 443 kts 221°
2026-04-18 20:23 22.48579 -57.99923 38006 ft 443 kts 221°
2026-04-18 20:24 22.43674 -58.03962 38010 ft 443 kts 221°
2026-04-18 20:24 22.38804 -58.07971 38006 ft 443 kts 221°
2026-04-18 20:25 22.33902 -58.12005 38009 ft 443 kts 221°
2026-04-18 20:25 22.28995 -58.16035 38006 ft 443 kts 221°
2026-04-18 20:26 22.24122 -58.20034 38008 ft 443 kts 221°
2026-04-18 20:26 22.19216 -58.24059 38009 ft 443 kts 221°
2026-04-18 20:27 22.14308 -58.28080 37999 ft 443 kts 220°
2026-04-18 20:27 22.09406 -58.32091 38000 ft 442 kts 220°
2026-04-18 20:28 22.04504 -58.36100 37998 ft 443 kts 220°
2026-04-18 20:28 21.99597 -58.40109 38000 ft 443 kts 221°
2026-04-18 20:29 21.94722 -58.44089 37997 ft 442 kts 220°
2026-04-18 20:29 21.89826 -58.48083 38000 ft 441 kts 221°
2026-04-18 20:30 21.84938 -58.52068 37998 ft 441 kts 220°
2026-04-18 20:30 21.80049 -58.56045 37998 ft 440 kts 220°
2026-04-18 20:31 21.75199 -58.59993 38000 ft 440 kts 220°
2026-04-18 20:31 21.70315 -58.63963 37998 ft 440 kts 220°
2026-04-18 20:32 21.65427 -58.67932 37998 ft 440 kts 220°
2026-04-18 20:32 21.60545 -58.71895 38001 ft 440 kts 220°
2026-04-18 20:33 21.55694 -58.75826 37991 ft 440 kts 220°
2026-04-18 20:33 21.50808 -58.79779 37992 ft 440 kts 220°
2026-04-18 20:34 21.45922 -58.83738 37964 ft 440 kts 220°
2026-04-18 20:34 21.41043 -58.87683 37973 ft 439 kts 220°
2026-04-18 20:35 21.36169 -58.91619 37979 ft 438 kts 220°
2026-04-18 20:35 21.31332 -58.95528 37956 ft 438 kts 220°
2026-04-18 20:36 21.26458 -58.99457 37977 ft 438 kts 220°
2026-04-18 20:36 21.21584 -59.03383 37978 ft 438 kts 220°
2026-04-18 20:37 21.16711 -59.07310 37967 ft 438 kts 220°
2026-04-18 20:37 21.11874 -59.11203 37980 ft 438 kts 220°
2026-04-18 20:38 21.07004 -59.15119 37966 ft 437 kts 220°
2026-04-18 20:38 21.02140 -59.19025 37979 ft 437 kts 220°
2026-04-18 20:39 20.97274 -59.22927 37978 ft 437 kts 220°
2026-04-18 20:39 20.92446 -59.26798 37962 ft 437 kts 220°
2026-04-18 20:40 20.87588 -59.30687 37979 ft 436 kts 220°
2026-04-18 20:40 20.82736 -59.34571 37972 ft 436 kts 220°
2026-04-18 20:41 20.77885 -59.38453 37977 ft 435 kts 220°
2026-04-18 20:41 20.73073 -59.42301 37977 ft 435 kts 220°
2026-04-18 20:42 20.68228 -59.46166 37959 ft 435 kts 220°
2026-04-18 20:42 20.63388 -59.50027 37977 ft 434 kts 220°
2026-04-18 20:43 20.58544 -59.53892 37956 ft 434 kts 220°
2026-04-18 20:43 20.53703 -59.57746 37957 ft 434 kts 220°
2026-04-18 20:44 20.48895 -59.61574 37963 ft 434 kts 220°
2026-04-18 20:44 20.44063 -59.65413 37955 ft 434 kts 220°
2026-04-18 20:45 20.39229 -59.69257 37963 ft 433 kts 220°
2026-04-18 20:45 20.34399 -59.73095 37961 ft 433 kts 220°
2026-04-18 20:46 20.29602 -59.76900 37957 ft 433 kts 220°
2026-04-18 20:46 20.24774 -59.80722 37961 ft 432 kts 220°
2026-04-18 20:47 20.19948 -59.84544 37964 ft 432 kts 220°
2026-04-18 20:47 20.15127 -59.88363 37960 ft 432 kts 220°
2026-04-18 20:48 20.10306 -59.92175 37968 ft 432 kts 220°
2026-04-18 20:48 20.05516 -59.95958 37960 ft 432 kts 220°
2026-04-18 20:49 20.00575 -59.99609 37950 ft 435 kts 212°
2026-04-18 20:49 19.95080 -60.02367 37960 ft 438 kts 208°
2026-04-18 20:50 19.89582 -60.05144 37970 ft 437 kts 210°
2026-04-18 20:50 19.84107 -60.07964 37964 ft 437 kts 210°
2026-04-18 20:51 19.78651 -60.10728 37959 ft 437 kts 210°
2026-04-18 20:51 19.73160 -60.13507 37956 ft 437 kts 210°
2026-04-18 20:52 19.67665 -60.16283 37957 ft 437 kts 210°
2026-04-18 20:52 19.62172 -60.19055 37958 ft 437 kts 210°
2026-04-18 20:53 19.56712 -60.21808 37960 ft 437 kts 210°
2026-04-18 20:53 19.51223 -60.24578 37959 ft 437 kts 210°
2026-04-18 20:54 19.45737 -60.27340 37959 ft 437 kts 210°
2026-04-18 20:54 19.40249 -60.30101 37960 ft 437 kts 210°
2026-04-18 20:55 19.34800 -60.32840 37974 ft 436 kts 210°
2026-04-18 20:55 19.29328 -60.35587 37954 ft 435 kts 210°
2026-04-18 20:56 19.23863 -60.38331 37960 ft 435 kts 210°
2026-04-18 20:56 19.18397 -60.41072 37962 ft 434 kts 210°
2026-04-18 20:57 19.12937 -60.43810 37957 ft 434 kts 210°
2026-04-18 20:57 19.07520 -60.46524 37970 ft 433 kts 210°
2026-04-18 20:58 19.02070 -60.49252 37969 ft 433 kts 210°
2026-04-18 20:58 18.96625 -60.51973 37959 ft 433 kts 210°
2026-04-18 20:59 18.91189 -60.54690 37954 ft 432 kts 210°
2026-04-18 20:59 18.85795 -60.57385 37957 ft 432 kts 210°
2026-04-18 21:00 18.80362 -60.60097 37712 ft 430 kts 210°
2026-04-18 21:00 18.77682 -60.61432 37272 ft 424 kts 210°
2026-04-18 21:00 18.75025 -60.62754 36757 ft 419 kts 210°
2026-04-18 21:01 18.72403 -60.64055 36263 ft 416 kts 208°
2026-04-18 21:01 18.69825 -60.65411 35745 ft 413 kts 215°
2026-04-18 21:01 18.67422 -60.67012 35284 ft 415 kts 218°
2026-04-18 21:01 18.65037 -60.68761 34778 ft 420 kts 219°
2026-04-18 21:02 18.62659 -60.70572 34271 ft 424 kts 220°
2026-04-18 21:02 18.57875 -60.74272 33240 ft 428 kts 220°
2026-04-18 21:02 18.55466 -60.76133 32734 ft 431 kts 217°
2026-04-18 21:03 18.52780 -60.77625 32144 ft 442 kts 206°
2026-04-18 21:03 18.49879 -60.78718 31632 ft 446 kts 204°
2026-04-18 21:03 18.46992 -60.79829 31107 ft 449 kts 205°
2026-04-18 21:03 18.44081 -60.81062 30564 ft 453 kts 206°
2026-04-18 21:04 18.41160 -60.82340 30028 ft 457 kts 206°
2026-04-18 21:04 18.38210 -60.83619 29467 ft 460 kts 206°
2026-04-18 21:04 18.35233 -60.84891 28920 ft 464 kts 205°
2026-04-18 21:04 18.32228 -60.86171 28367 ft 467 kts 205°
2026-04-18 21:05 18.29207 -60.87461 27807 ft 469 kts 205°
2026-04-18 21:05 18.26179 -60.88756 27249 ft 472 kts 205°
2026-04-18 21:05 18.23130 -60.90060 26673 ft 474 kts 205°
2026-04-18 21:05 18.20066 -60.91368 26114 ft 476 kts 205°
2026-04-18 21:06 18.17032 -60.92666 25555 ft 478 kts 205°
2026-04-18 21:06 18.13939 -60.93988 24975 ft 480 kts 205°
2026-04-18 21:06 18.10859 -60.95302 24398 ft 470 kts 205°
2026-04-18 21:06 18.07903 -60.96555 23852 ft 445 kts 205°
2026-04-18 21:07 18.05101 -60.97743 23339 ft 423 kts 205°
2026-04-18 21:07 18.02407 -60.98875 22841 ft 413 kts 207°
2026-04-18 21:07 17.99902 -61.00361 22351 ft 414 kts 217°
2026-04-18 21:07 17.97598 -61.02164 21883 ft 413 kts 221°
2026-04-18 21:08 17.95388 -61.04079 21394 ft 411 kts 222°
2026-04-18 21:08 17.93230 -61.06025 20901 ft 408 kts 223°
2026-04-18 21:08 17.91128 -61.07951 20421 ft 406 kts 223°
2026-04-18 21:08 17.89015 -61.09903 19972 ft 404 kts 223°
2026-04-18 21:09 17.86914 -61.11850 19486 ft 402 kts 223°
2026-04-18 21:09 17.84825 -61.13789 18999 ft 399 kts 223°
2026-04-18 21:09 17.82751 -61.15713 18523 ft 398 kts 223°
2026-04-18 21:09 17.80686 -61.17628 18080 ft 395 kts 223°
2026-04-18 21:10 17.78630 -61.19535 17606 ft 394 kts 223°
2026-04-18 21:10 17.76584 -61.21431 17124 ft 391 kts 223°
2026-04-18 21:10 17.74548 -61.23317 16663 ft 389 kts 223°
2026-04-18 21:10 17.72524 -61.25191 16198 ft 387 kts 223°
2026-04-18 21:11 17.70536 -61.27031 15744 ft 385 kts 223°
2026-04-18 21:11 17.68531 -61.28884 15286 ft 383 kts 223°
2026-04-18 21:11 17.66538 -61.30726 14830 ft 381 kts 223°
2026-04-18 21:11 17.64549 -61.32562 14392 ft 379 kts 223°
2026-04-18 21:12 17.62572 -61.34384 13928 ft 378 kts 223°
2026-04-18 21:12 17.60606 -61.36195 13444 ft 376 kts 223°
2026-04-18 21:12 17.58648 -61.37998 13011 ft 373 kts 222°
2026-04-18 21:12 17.56701 -61.39790 12579 ft 371 kts 222°
2026-04-18 21:13 17.54765 -61.41571 12137 ft 370 kts 222°
2026-04-18 21:13 17.52841 -61.43340 11690 ft 364 kts 222°
2026-04-18 21:13 17.51014 -61.45017 11273 ft 345 kts 222°
2026-04-18 21:13 17.49256 -61.46629 10877 ft 328 kts 221°
2026-04-18 21:14 17.47578 -61.48169 10489 ft 314 kts 221°
2026-04-18 21:14 17.45968 -61.49646 10122 ft 302 kts 221°
2026-04-18 21:14 17.44414 -61.51074 9772 ft 295 kts 221°
2026-04-18 21:14 17.42861 -61.52498 9469 ft 300 kts 220°
2026-04-18 21:15 17.41283 -61.53944 9141 ft 303 kts 220°
2026-04-18 21:15 17.39694 -61.55400 8761 ft 303 kts 220°
2026-04-18 21:15 17.38114 -61.56846 8395 ft 301 kts 220°
2026-04-18 21:15 17.36563 -61.58263 8069 ft 299 kts 220°
2026-04-18 21:16 17.35001 -61.59689 7722 ft 298 kts 219°
2026-04-18 21:16 17.33440 -61.61112 7332 ft 296 kts 219°
2026-04-18 21:16 17.31891 -61.62521 6970 ft 294 kts 219°
2026-04-18 21:16 17.30352 -61.63922 6629 ft 292 kts 219°
2026-04-18 21:17 17.28819 -61.65315 6273 ft 291 kts 219°
2026-04-18 21:17 17.27294 -61.66701 5918 ft 289 kts 219°
2026-04-18 21:17 17.25788 -61.68071 5569 ft 283 kts 219°
2026-04-18 21:17 17.24335 -61.69396 5249 ft 272 kts 219°
2026-04-18 21:18 17.22951 -61.70664 4931 ft 264 kts 219°
2026-04-18 21:18 17.21597 -61.71925 4594 ft 258 kts 220°
2026-04-18 21:18 17.20279 -61.73168 4288 ft 252 kts 220°
2026-04-18 21:18 17.18998 -61.74384 4010 ft 245 kts 220°
2026-04-18 21:19 17.17751 -61.75562 3733 ft 239 kts 219°
2026-04-18 21:19 17.16529 -61.76707 3512 ft 227 kts 219°
2026-04-18 21:19 17.15374 -61.77789 3195 ft 224 kts 219°
2026-04-18 21:19 17.14292 -61.78983 2905 ft 232 kts 232°
2026-04-18 21:20 17.13455 -61.80426 2739 ft 233 kts 242°
2026-04-18 21:20 17.12763 -61.81956 2636 ft 230 kts 244°
2026-04-18 21:20 17.12120 -61.83385 2569 ft 210 kts 243°
2026-04-18 21:20 17.11476 -61.84714 2605 ft 203 kts 240°
2026-04-18 21:21 17.10790 -61.86023 2675 ft 207 kts 239°
2026-04-18 21:21 17.10079 -61.87336 2758 ft 205 kts 237°
2026-04-18 21:21 17.09356 -61.88619 2912 ft 207 kts 239°
2026-04-18 21:21 17.08702 -61.89973 2855 ft 210 kts 243°
2026-04-18 21:22 17.08110 -61.91332 2701 ft 209 kts 245°
2026-04-18 21:22 17.07526 -61.92739 2616 ft 205 kts 245°
2026-04-18 21:22 17.07035 -61.94132 2573 ft 206 kts 260°
2026-04-18 21:22 17.07159 -61.95590 2574 ft 205 kts 285°
2026-04-18 21:23 17.07574 -61.97017 2630 ft 206 kts 291°
2026-04-18 21:23 17.08050 -61.98425 2616 ft 205 kts 292°
2026-04-18 21:23 17.08535 -61.99823 2589 ft 204 kts 292°
2026-04-18 21:23 17.09023 -62.01216 2611 ft 204 kts 292°
2026-04-18 21:24 17.09494 -62.02614 2596 ft 204 kts 285°
2026-04-18 21:24 17.09377 -62.04082 2519 ft 205 kts 246°
2026-04-18 21:24 17.08464 -62.05161 2504 ft 198 kts 206°
2026-04-18 21:24 17.07176 -62.05416 2554 ft 190 kts 168°
2026-04-18 21:25 17.06060 -62.04796 2577 ft 182 kts 131°
2026-04-18 21:25 17.05364 -62.03709 2672 ft 181 kts 116°
2026-04-18 21:25 17.04876 -62.02512 2613 ft 179 kts 99°
2026-04-18 21:25 17.04998 -62.01237 2586 ft 176 kts 77°
2026-04-18 21:26 17.05321 -62.00000 2592 ft 176 kts 75°
2026-04-18 21:26 17.05680 -61.98777 2588 ft 175 kts 73°
2026-04-18 21:26 17.06054 -61.97596 2411 ft 168 kts 72°
2026-04-18 21:26 17.06424 -61.96475 2203 ft 154 kts 72°
2026-04-18 21:27 17.06769 -61.95460 1898 ft 147 kts 72°
2026-04-18 21:27 17.07120 -61.94445 1685 ft 150 kts 71°
2026-04-18 21:27 17.07481 -61.93417 1553 ft 151 kts 71°
2026-04-18 21:27 17.07842 -61.92406 1523 ft 151 kts 70°
2026-04-18 21:28 17.08216 -61.91381 1525 ft 151 kts 70°
2026-04-18 21:28 17.08577 -61.90351 1472 ft 148 kts 72°
2026-04-18 21:28 17.08912 -61.89351 1380 ft 144 kts 72°
2026-04-18 21:28 17.09244 -61.88365 1220 ft 144 kts 72°
2026-04-18 21:29 17.09577 -61.87389 1141 ft 140 kts 72°
2026-04-18 21:29 17.09912 -61.86413 1158 ft 144 kts 71°
2026-04-18 21:29 17.10266 -61.85430 1192 ft 146 kts 70°
2026-04-18 21:29 17.10660 -61.84455 1064 ft 144 kts 67°
2026-04-18 21:30 17.11133 -61.83548 857 ft 141 kts 61°
2026-04-18 21:30 17.11645 -61.82683 642 ft 143 kts 60°
2026-04-18 21:30 17.12187 -61.81801 453 ft 145 kts 59°
2026-04-18 21:30 17.12688 -61.80936 255 ft 144 kts 60°
2026-04-18 21:31 17.13212 -61.80053 90 ft 140 kts 59°
2026-04-18 21:31 17.13312 -61.79888 76 ft 134 kts 59°
2026-04-18 21:31 17.13549 -61.79477 75 ft 104 kts 60°
2026-04-18 21:31 17.13853 -61.78959 60 ft 67 kts 59°
2026-04-18 21:32 17.14019 -61.78672 70 ft 14 kts 57°
2026-04-18 21:32 17.14060 -61.78624 72 ft 7 kts 15°
2026-04-18 21:32 17.14094 -61.78656 64 ft 9 kts 287°
2026-04-18 21:32 17.14104 -61.78738 66 ft 11 kts 275°
2026-04-18 21:33 17.14109 -61.78815 70 ft 12 kts 272°
2026-04-18 21:33 17.14086 -61.78899 65 ft 10 kts 242°
2026-04-18 21:33 17.14050 -61.78963 65 ft 11 kts 235°
2026-04-18 21:33 17.14022 -61.79006 65 ft 7 kts 236°
2026-04-18 21:34 17.13988 -61.79060 60 ft 9 kts 237°
2026-04-18 21:34 17.13951 -61.79108 60 ft 10 kts 212°
2026-04-18 21:34 17.13908 -61.79125 60 ft 6 kts 198°
2026-04-18 21:34 17.13876 -61.79146 69 ft 5 kts 224°
2026-04-18 21:35 17.13865 -61.79173 69 ft 3 kts 278°
2026-04-18 21:35 17.13890 -61.79199 65 ft 7 kts 322°
2026-04-18 21:35 17.13924 -61.79222 68 ft 6 kts 328°
2026-04-18 21:35 17.13933 -61.79228 68 ft 0 kts 328°